Time,TemperatureF,DewpointF,PressureIn,WindDirection,WindDirectionDegrees,WindSpeedMPH,WindSpeedGustMPH,Humidity,HourlyPrecipIn,Conditions,Clouds,dailyrainin,SolarRadiationWatts/m^2,SoftwareType,DateUTC
2013-06-09 00:02:00,72.6,71.0,30.07,SSW,207,0.0,0.0,95,0.00,,,0.00,0,weatherlink.com 1.10,2013-06-09 04:02:00,
2013-06-09 00:17:00,72.5,71.0,30.07,SSW,207,0.0,0.0,95,0.00,,,0.00,0,weatherlink.com 1.10,2013-06-09 04:17:00,
2013-06-09 00:32:00,72.4,71.0,30.07,SSW,207,0.0,3.0,95,0.00,,,0.00,0,weatherlink.com 1.10,2013-06-09 04:32:00,
2013-06-09 00:47:00,72.4,71.0,30.08,SSW,207,0.0,1.0,95,0.00,,,0.00,0,weatherlink.com 1.10,2013-06-09 04:47:00,
2013-06-09 01:02:00,72.4,71.0,30.07,SSW,207,0.0,0.0,95,0.00,,,0.00,0,weatherlink.com 1.10,2013-06-09 05:02:00,
2013-06-09 01:17:00,72.3,71.0,30.08,SSW,207,0.0,0.0,95,0.00,,,0.00,0,weatherlink.com 1.10,2013-06-09 05:17:00,
2013-06-09 01:32:00,72.3,71.0,30.08,SSW,208,0.0,0.0,95,0.00,,,0.00,0,weatherlink.com 1.10,2013-06-09 05:32:00,
2013-06-09 01:47:00,72.2,71.0,30.08,SSW,207,0.0,1.0,95,0.00,,,0.00,0,weatherlink.com 1.10,2013-06-09 05:47:00,
2013-06-09 02:03:00,72.1,71.0,30.07,SSW,208,0.0,1.0,95,0.00,,,0.00,0,weatherlink.com 1.10,2013-06-09 06:03:00,
2013-06-09 02:18:00,72.0,71.0,30.07,ESE,114,0.0,2.0,95,0.00,,,0.00,0,weatherlink.com 1.10,2013-06-09 06:18:00,
2013-06-09 02:33:00,71.8,70.0,30.07,East,96,0.0,3.0,95,0.00,,,0.00,0,weatherlink.com 1.10,2013-06-09 06:33:00,
2013-06-09 02:48:00,71.5,70.0,30.06,East,96,0.0,5.0,95,0.00,,,0.00,0,weatherlink.com 1.10,2013-06-09 06:48:00,
2013-06-09 03:03:00,71.4,70.0,30.06,East,96,0.0,1.0,95,0.00,,,0.00,0,weatherlink.com 1.10,2013-06-09 07:03:00,
2013-06-09 03:18:00,71.3,70.0,30.06,East,98,0.0,2.0,95,0.00,,,0.00,0,weatherlink.com 1.10,2013-06-09 07:18:00,
2013-06-09 03:33:00,71.3,70.0,30.06,East,97,0.0,0.0,95,0.00,,,0.00,0,weatherlink.com 1.10,2013-06-09 07:33:00,
2013-06-09 03:48:00,71.3,70.0,30.06,East,96,0.0,0.0,95,0.00,,,0.00,0,weatherlink.com 1.10,2013-06-09 07:48:00,
2013-06-09 04:03:00,71.2,70.0,30.06,East,97,0.0,1.0,95,0.00,,,0.00,0,weatherlink.com 1.10,2013-06-09 08:03:00,
2013-06-09 04:18:00,71.1,70.0,30.05,East,96,0.0,0.0,95,0.00,,,0.00,0,weatherlink.com 1.10,2013-06-09 08:18:00,
2013-06-09 04:33:00,70.9,70.0,30.06,East,97,0.0,0.0,95,0.00,,,0.00,0,weatherlink.com 1.10,2013-06-09 08:33:00,
2013-06-09 04:48:00,70.9,70.0,30.06,East,98,0.0,0.0,95,0.00,,,0.00,0,weatherlink.com 1.10,2013-06-09 08:48:00,
2013-06-09 05:03:00,70.8,69.0,30.06,East,96,0.0,0.0,95,0.00,,,0.00,0,weatherlink.com 1.10,2013-06-09 09:03:00,
2013-06-09 05:18:00,70.7,69.0,30.06,East,98,0.0,0.0,95,0.00,,,0.00,0,weatherlink.com 1.10,2013-06-09 09:18:00,
2013-06-09 05:33:00,70.7,69.0,30.06,East,98,0.0,0.0,95,0.00,,,0.00,0,weatherlink.com 1.10,2013-06-09 09:33:00,
2013-06-09 05:48:00,70.6,69.0,30.06,East,97,0.0,0.0,95,0.01,,,0.01,0,weatherlink.com 1.10,2013-06-09 09:48:00,
2013-06-09 06:03:00,70.6,69.0,30.06,East,97,0.0,0.0,95,0.01,,,0.01,0,weatherlink.com 1.10,2013-06-09 10:03:00,
2013-06-09 06:18:00,70.5,69.0,30.06,East,98,0.0,0.0,95,0.01,,,0.01,0,weatherlink.com 1.10,2013-06-09 10:18:00,
2013-06-09 06:33:00,70.6,69.0,30.06,East,97,0.0,0.0,95,0.01,,,0.01,9,weatherlink.com 1.10,2013-06-09 10:33:00,
2013-06-09 06:48:00,70.7,69.0,30.07,East,96,0.0,0.0,95,0.00,,,0.01,21,weatherlink.com 1.10,2013-06-09 10:48:00,
2013-06-09 07:03:00,70.9,70.0,30.07,East,96,0.0,0.0,95,0.00,,,0.01,32,weatherlink.com 1.10,2013-06-09 11:03:00,
2013-06-09 07:18:00,71.3,70.0,30.08,East,97,0.0,0.0,96,0.00,,,0.01,70,weatherlink.com 1.10,2013-06-09 11:18:00,
2013-06-09 07:33:00,72.1,71.0,30.08,East,97,0.0,1.0,96,0.00,,,0.01,86,weatherlink.com 1.10,2013-06-09 11:33:00,
2013-06-09 07:48:00,72.8,72.0,30.09,East,96,0.0,1.0,96,0.00,,,0.01,65,weatherlink.com 1.10,2013-06-09 11:48:00,
2013-06-09 08:03:00,73.1,72.0,30.09,East,97,0.0,0.0,96,0.00,,,0.01,47,weatherlink.com 1.10,2013-06-09 12:03:00,
2013-06-09 08:18:00,73.3,72.0,30.09,East,98,0.0,0.0,95,0.00,,,0.01,76,weatherlink.com 1.10,2013-06-09 12:18:00,
2013-06-09 08:33:00,74.2,73.0,30.09,East,97,0.0,2.0,96,0.00,,,0.01,311,weatherlink.com 1.10,2013-06-09 12:33:00,
2013-06-09 08:48:00,75.1,74.0,30.09,ESE,113,1.0,3.0,96,0.00,,,0.01,309,weatherlink.com 1.10,2013-06-09 12:48:00,
2013-06-09 09:03:00,76.1,75.0,30.09,SE,129,0.0,5.0,95,0.00,,,0.01,418,weatherlink.com 1.10,2013-06-09 13:03:00,
2013-06-09 09:18:00,77.9,76.0,30.09,SSE,150,2.0,6.0,93,0.00,,,0.01,468,weatherlink.com 1.10,2013-06-09 13:18:00,
2013-06-09 09:33:00,79.3,76.0,30.09,SSE,167,1.0,7.0,90,0.00,,,0.01,527,weatherlink.com 1.10,2013-06-09 13:33:00,
2013-06-09 09:48:00,80.8,76.0,30.08,SSE,165,5.0,9.0,84,0.00,,,0.01,584,weatherlink.com 1.10,2013-06-09 13:48:00,
2013-06-09 10:04:00,81.8,75.0,30.09,South,173,8.0,8.0,80,0.00,,,0.01,694,weatherlink.com 1.10,2013-06-09 14:04:00,
2013-06-09 10:19:00,82.4,75.0,30.09,SE,138,3.0,9.0,79,0.00,,,0.01,401,weatherlink.com 1.10,2013-06-09 14:19:00,
2013-06-09 10:34:00,82.7,75.0,30.08,South,179,1.0,7.0,77,0.00,,,0.01,290,weatherlink.com 1.10,2013-06-09 14:34:00,
2013-06-09 10:49:00,83.0,74.0,30.08,SSE,163,10.0,12.0,74,0.00,,,0.01,339,weatherlink.com 1.10,2013-06-09 14:49:00,
2013-06-09 11:04:00,83.0,73.0,30.08,South,176,4.0,9.0,72,0.00,,,0.01,323,weatherlink.com 1.10,2013-06-09 15:04:00,
2013-06-09 11:19:00,83.6,73.0,30.09,SE,137,4.0,9.0,71,0.00,,,0.01,519,weatherlink.com 1.10,2013-06-09 15:19:00,
2013-06-09 11:34:00,85.1,74.0,30.09,SSE,155,5.0,8.0,70,0.00,,,0.01,322,weatherlink.com 1.10,2013-06-09 15:34:00,
2013-06-09 11:49:00,85.2,74.0,30.09,SSE,157,4.0,9.0,70,0.00,,,0.01,956,weatherlink.com 1.10,2013-06-09 15:49:00,
2013-06-09 12:04:00,86.4,75.0,30.09,SSE,163,1.0,9.0,68,0.00,,,0.01,353,weatherlink.com 1.10,2013-06-09 16:04:00,
2013-06-09 12:19:00,86.2,75.0,30.09,SSE,159,0.0,7.0,69,0.00,,,0.01,1093,weatherlink.com 1.10,2013-06-09 16:19:00,
2013-06-09 12:34:00,86.6,74.0,30.09,South,171,1.0,8.0,67,0.00,,,0.01,292,weatherlink.com 1.10,2013-06-09 16:34:00,
2013-06-09 12:49:00,86.8,74.0,30.08,SSE,163,4.0,9.0,66,0.00,,,0.01,972,weatherlink.com 1.10,2013-06-09 16:49:00,
2013-06-09 13:04:00,87.4,75.0,30.08,SSE,167,0.0,8.0,66,0.00,,,0.01,1030,weatherlink.com 1.10,2013-06-09 17:04:00,
2013-06-09 13:19:00,87.4,74.0,30.08,SSE,153,0.0,6.0,64,0.00,,,0.01,285,weatherlink.com 1.10,2013-06-09 17:19:00,
2013-06-09 13:34:00,86.9,74.0,30.07,SSE,164,4.0,8.0,65,0.00,,,0.01,330,weatherlink.com 1.10,2013-06-09 17:34:00,
2013-06-09 13:49:00,87.6,73.0,30.07,SE,134,2.0,8.0,62,0.00,,,0.01,499,weatherlink.com 1.10,2013-06-09 17:49:00,
2013-06-09 14:04:00,88.5,74.0,30.06,SSE,157,5.0,9.0,62,0.00,,,0.01,1083,weatherlink.com 1.10,2013-06-09 18:04:00,
2013-06-09 14:19:00,89.2,72.0,30.05,SE,146,1.0,10.0,58,0.00,,,0.01,227,weatherlink.com 1.10,2013-06-09 18:19:00,
2013-06-09 14:34:00,89.3,73.0,30.05,ESE,109,1.0,12.0,59,0.00,,,0.01,1051,weatherlink.com 1.10,2013-06-09 18:34:00,
2013-06-09 14:49:00,88.6,73.0,30.04,SE,129,6.0,10.0,60,0.00,,,0.01,1063,weatherlink.com 1.10,2013-06-09 18:49:00,
2013-06-09 15:04:00,89.2,74.0,30.04,SE,132,5.0,13.0,61,0.00,,,0.01,216,weatherlink.com 1.10,2013-06-09 19:04:00,
2013-06-09 15:19:00,86.7,74.0,30.04,East,89,2.0,9.0,67,0.00,,,0.01,1141,weatherlink.com 1.10,2013-06-09 19:19:00,
2013-06-09 15:34:00,87.5,74.0,30.03,South,169,6.0,13.0,65,0.00,,,0.01,990,weatherlink.com 1.10,2013-06-09 19:34:00,
2013-06-09 15:49:00,84.1,76.0,30.03,ESE,123,0.0,10.0,76,0.00,,,0.01,914,weatherlink.com 1.10,2013-06-09 19:49:00,
2013-06-09 16:04:00,86.1,75.0,30.03,SSE,153,3.0,7.0,70,0.00,,,0.01,858,weatherlink.com 1.10,2013-06-09 20:04:00,
2013-06-09 16:19:00,87.1,73.0,30.02,South,178,0.0,8.0,64,0.00,,,0.01,264,weatherlink.com 1.10,2013-06-09 20:19:00,
2013-06-09 16:34:00,87.0,75.0,30.02,SSE,157,6.0,15.0,67,0.00,,,0.01,886,weatherlink.com 1.10,2013-06-09 20:34:00,
2013-06-09 16:49:00,86.7,75.0,30.02,East,93,2.0,14.0,68,0.00,,,0.01,881,weatherlink.com 1.10,2013-06-09 20:49:00,
2013-06-09 17:04:00,86.9,76.0,30.02,SE,137,0.0,9.0,69,0.00,,,0.01,311,weatherlink.com 1.10,2013-06-09 21:04:00,
2013-06-09 17:19:00,87.3,74.0,30.02,SSE,152,4.0,10.0,65,0.00,,,0.01,253,weatherlink.com 1.10,2013-06-09 21:19:00,
2013-06-09 17:34:00,87.0,74.0,30.02,SSE,160,9.0,13.0,65,0.00,,,0.01,123,weatherlink.com 1.10,2013-06-09 21:34:00,
2013-06-09 17:49:00,85.6,73.0,30.01,South,171,7.0,11.0,66,0.00,,,0.01,107,weatherlink.com 1.10,2013-06-09 21:49:00,
2013-06-09 18:04:00,84.7,74.0,30.02,SE,142,1.0,10.0,71,0.00,,,0.01,171,weatherlink.com 1.10,2013-06-09 22:04:00,
2013-06-09 18:19:00,83.8,74.0,30.01,SE,132,9.0,10.0,72,0.00,,,0.01,163,weatherlink.com 1.10,2013-06-09 22:19:00,
2013-06-09 18:34:00,83.3,71.0,30.01,ESE,103,7.0,13.0,67,0.00,,,0.01,105,weatherlink.com 1.10,2013-06-09 22:34:00,
2013-06-09 18:49:00,83.5,71.0,30.02,SE,124,0.0,10.0,65,0.00,,,0.01,88,weatherlink.com 1.10,2013-06-09 22:49:00,
2013-06-09 19:04:00,83.1,70.0,30.02,ESE,107,3.0,9.0,65,0.00,,,0.01,56,weatherlink.com 1.10,2013-06-09 23:04:00,
2013-06-09 19:19:00,82.7,70.0,30.03,NNE,28,4.0,5.0,65,0.00,,,0.01,40,weatherlink.com 1.10,2013-06-09 23:19:00,
2013-06-09 19:34:00,82.3,70.0,30.04,ENE,57,2.0,5.0,66,0.00,,,0.01,32,weatherlink.com 1.10,2013-06-09 23:34:00,
2013-06-09 19:49:00,81.8,71.0,30.04,ESE,115,0.0,5.0,69,0.00,,,0.01,19,weatherlink.com 1.10,2013-06-09 23:49:00,
2013-06-09 20:04:00,81.3,71.0,30.05,East,86,5.0,7.0,71,0.00,,,0.01,11,weatherlink.com 1.10,2013-06-10 00:04:00,
2013-06-09 20:19:00,80.8,72.0,30.05,ESE,109,0.0,3.0,74,0.00,,,0.01,0,weatherlink.com 1.10,2013-06-10 00:19:00,
2013-06-09 20:35:00,80.4,72.0,30.05,SSE,152,0.0,5.0,76,0.00,,,0.01,0,weatherlink.com 1.10,2013-06-10 00:35:00,
2013-06-09 20:50:00,80.0,72.0,30.05,WSW,254,0.0,7.0,77,0.00,,,0.01,0,weatherlink.com 1.10,2013-06-10 00:50:00,
2013-06-09 21:05:00,79.7,73.0,30.06,ESE,103,0.0,2.0,79,0.00,,,0.01,0,weatherlink.com 1.10,2013-06-10 01:05:00,
2013-06-09 21:20:00,79.4,73.0,30.06,ESE,120,0.0,8.0,80,0.00,,,0.01,0,weatherlink.com 1.10,2013-06-10 01:20:00,
2013-06-09 21:35:00,79.2,73.0,30.06,ESE,113,1.0,6.0,80,0.00,,,0.01,0,weatherlink.com 1.10,2013-06-10 01:35:00,
2013-06-09 21:50:00,78.9,73.0,30.06,East,98,0.0,7.0,81,0.00,,,0.01,0,weatherlink.com 1.10,2013-06-10 01:50:00,
2013-06-09 22:05:00,78.7,73.0,30.06,East,86,0.0,6.0,82,0.00,,,0.01,0,weatherlink.com 1.10,2013-06-10 02:05:00,
2013-06-09 22:20:00,78.7,73.0,30.06,SSE,157,0.0,5.0,83,0.00,,,0.01,0,weatherlink.com 1.10,2013-06-10 02:20:00,
2013-06-09 22:35:00,78.4,73.0,30.07,SE,137,0.0,4.0,83,0.00,,,0.01,0,weatherlink.com 1.10,2013-06-10 02:35:00,
2013-06-09 22:50:00,78.1,73.0,30.06,ESE,115,0.0,8.0,84,0.00,,,0.01,0,weatherlink.com 1.10,2013-06-10 02:50:00,
2013-06-09 23:05:00,78.0,73.0,30.06,South,169,0.0,6.0,85,0.00,,,0.01,0,weatherlink.com 1.10,2013-06-10 03:05:00,
2013-06-09 23:20:00,77.8,73.0,30.07,SE,145,0.0,6.0,85,0.00,,,0.01,0,weatherlink.com 1.10,2013-06-10 03:20:00,
2013-06-09 23:35:00,77.7,73.0,30.07,SSE,163,2.0,2.0,86,0.00,,,0.01,0,weatherlink.com 1.10,2013-06-10 03:35:00,
2013-06-09 23:50:00,77.6,73.0,30.07,SE,140,0.0,5.0,86,0.00,,,0.01,0,weatherlink.com 1.10,2013-06-10 03:50:00,